Regional Weather Roundup
Issued by NWS Northern Indiana

Home | Current Version | Previous Version | Text Only | Print | Product List | Glossary Off
Versions: 1 2 3 4 5 6 7 8 9 10 11 12 13 14 15 16 17 18 19 20 21 22 23 24 25 26 27 28 29 30 31 32 33 34 35 36 37 38 39 40 41 42 43 44 45 46 47 48 49 50

000
ASUS43 KIWX 230100
RWRIWX

KIWX WEATHER ROUNDUP
NATIONAL WEATHER SERVICE NORTHERN INDIANA
900 PM EDT MON MAY 22 2017

NOTE: "FAIR" INDICATES FEW OR NO CLOUDS BELOW 12,000 FEET WITH NO
SIGNIFICANT WEATHER AND/OR OBSTRUCTIONS TO VISIBILITY.

* THESE STATIONS ARE NOT UNDER NWS QUALITY CONTROL. THEY ALSO MAY NOT
  REPORT WEATHER SUCH AS PRECIPITATION OR FOG.

INZ001>027-230200-
NORTHERN INDIANA

CITY           SKY/WX    TMP DP  RH WIND       PRES   REMARKS
GARY*          CLOUDY    68  48  49 W23       29.95R
MICHIGAN CITY* CLOUDY    66  46  48 S10G18    29.94S
SOUTH BEND     CLOUDY    67  47  48 SW13      29.95R
GOSHEN         CLOUDY    66  46  48 S13       29.97R
MONTICELLO*    CLOUDY    66  46  47 S6        29.98S
WARSAW*        CLOUDY    64  46  52 SW5       29.98S
ANGOLA*        CLEAR     64  55  72 S8        29.98S
FORT WAYNE     PTCLDY    63  50  62 SW7       30.01R
PERU/GRISSOM   CLOUDY    64  53  67 SW5       29.98S

$$
INZ028>050-230200-
CENTRAL INDIANA

CITY           SKY/WX    TMP DP  RH WIND       PRES   REMARKS
LAFAYETTE      CLOUDY    67  47  48 S5        29.98S
KOKOMO*        CLOUDY    65  52  62 S5        30.01S
MUNCIE*        CLEAR     67  45  45 CALM      30.00F
INDIANAPOLIS   PTCLDY    65  46  50 SW6       29.99F

$$
MIZ043>046-050>051-056>058-064>065-071>073-077>080-230200-
SOUTHWEST LOWER MICHIGAN

CITY           SKY/WX    TMP DP  RH WIND       PRES   REMARKS
BATTLE CREEK   PTCLDY    64  47  53 S9        29.94F
BENTON HARBOR  CLOUDY    70  42  36 SW12      29.91S
COLDWATER*     PTCLDY    64  46  52 S6        29.97R
HILLSDALE*     CLEAR     61  45  55 S7        29.98R
HOLLAND        CLOUDY    65  47  52 S7        29.90F
GRAND RAPIDS   CLOUDY    62  49  62 S8        29.90F
KALAMAZOO      MOCLDY    67  44  43 S15       29.94S
STURGIS*       MOCLDY    64  49  56 S9        29.96R
THREE RIVERS*  CLOUDY    66  46  48 SW12      29.95S

$$
OHZ001>008-015>018-024>025-230200-
NORTHWEST OHIO

CITY           SKY/WX    TMP DP  RH WIND       PRES   REMARKS
DEFIANCE       CLEAR     63  45  51 SW6       30.00R
FINDLAY        CLEAR     63  49  60 SW7       30.00R
TOLEDO EXPRESS CLEAR     60  50  69 S5        29.98S
TOLEDO METCALF CLEAR     65  50  58 SW7       29.99S
LIMA           CLEAR     63  48  58 SW5       30.01S

$$
AND FOR LAKE MICHIGAN COASTAL AND OPEN LAKE BUOY OBSERVATIONS

STATION/POSITION TEMP    WIND        PRES    VSBY  WAVE
                 AIR SEA DIR/SP/G                  HT/PER
                 (F)     (DEG/KT/KT) (MB)    (MI)  (FT/S)
CALUMET HARBOR    68     230/ 11/ 16 1013.0R
MICHIGAN CITY     69     190/ 18/ 23   N/A
BURNS HARBOR      68     210/ 13/ 20 1013.9R
SOUTH LAKE BUOY   51 45  180/ 10/ 12 1012.1          1/ 3
4 MI NW BRIDGMAN  62 55  220/ 12/ 16 1013.4R         2/ 3
MICHIGAN CITY     63 53  200/ 12/ 16   N/A           2/ 3

$$
&&




USA.gov is the U.S. government's official web portal to all federal, state and local government web resources and services.